Location: *
(10.4782°N, 67.2163°W)
Time: 23:58:24
(UTC+00:00)

CENTAUR R/B - Pass Details

Date: 23 May 2024
Orbit: 668 x 1517 km, 63.4° (Epoch: 15 June)

Event Time Altitude Azimuth Distance (km) Brightness Sun altitude
Exits shadow 09:20:27 11° 215° (SW) 2,076 3.7 -11.2°
Maximum altitude 09:25:00 60° 295° (WNW) 832 2.0 -10.2°
Drops below altitude 10° 09:30:19 10° 15° (NNE) 2,406 5.1 -9.0°
Sets 09:33:00 0° 19° (NNE) 3,458 6.1 -8.4°
